Weather History for KTTA - January, 2013

Change the Weather History Date:

Thursday, January 17, 2013

  Actual Average (KRDU) Record (KRDU)
Temperature  
Mean Temperature 42 °F 41 °F  
Max Temperature 50 °F 51 °F 77 °F (1943)
Min Temperature 34 °F 31 °F -1 °F (1977)
Degree Days  
Heating Degree Days 23 24  
Month to date heating degree days 414  
Since 1 July heating degree days 1665  
Cooling Degree Days 0 0  
Month to date cooling degree days 0  
Year to date cooling degree days 0  
Moisture  
Dew Point 47 °F    
Average Humidity 96    
Maximum Humidity 99    
Minimum Humidity 91    
Precipitation  
Precipitation 0.84 in 0.12 in 1.75 in (1946)
Month to date precipitation 1.93  
Year to date precipitation 1.93  
Snow  
Snow 0.00 in 0.10 in 4.00 in (1946)
Month to date snowfall 1.5  
Since 1 July snowfall 2.2  
Snow Depth -    
Sea Level Pressure  
Sea Level Pressure 29.96 in    
Wind  
Wind Speed 5 mph (NNE)    
Max Wind Speed 25 mph    
Max Gust Speed 33 mph    
Visibility 6 miles    
Events Rain    
T = Trace of Precipitation, MM = Missing Value Source: NWS Daily Summary

Daily Weather History Graph

Daily Weather History Graph

Search for Another Location

Airport or City:

Trip Planner

Search our weather history database for the weather conditions in past years. The results will help you decide how hot, cold, wet, or windy it might be!

Date:

Astronomy

Jan. 17, 2013 Rise Set
Actual Time 7:24 AM EST 5:28 PM EST
Civil Twilight 6:56 AM EST 5:56 PM EST
Nautical Twilight 6:25 AM EST 6:27 PM EST
Astronomical Twilight 5:55 AM EST 6:58 PM EST
Moon 10:45 AM EST (1/17) No Moon Set
Length of Visible Light 10h 59m
Length of Day
10h 04m
Waxing Crescent, 37% of the Moon is Illuminated
Jan 17
Waxing Crescent
Jan 18
First Quarter
Jan 26
Full
Feb 3
Last Quarter
Feb 10
New

Hourly Weather History & Observations

Time (EST) Temp. Windchill Dew Point Humidity Pressure Visibility Wind Dir Wind Speed Gust Speed Precip Events Conditions
12:15 AM 50.0 °F - 49.3 °F 97% 29.98 in 7.0 mi Calm Calm - N/A   Drizzle
12:35 AM 50.2 °F - 49.5 °F 97% 29.98 in 5.0 mi Calm Calm - N/A   Drizzle
12:55 AM 50.2 °F - 49.6 °F 98% 29.98 in 5.0 mi Calm Calm - 0.01 in   Heavy Drizzle
1:15 AM 50.2 °F - 49.6 °F 98% 29.98 in 4.0 mi Calm Calm - 0.03 in Rain Rain
1:35 AM 50.4 °F - 50.0 °F 99% 29.98 in 7.0 mi Calm Calm - 0.04 in Rain Light Rain
1:55 AM 50.4 °F - 50.0 °F 99% 29.98 in 7.0 mi Calm Calm - 0.04 in Rain Rain
2:15 AM 50.5 °F - 50.0 °F 98% 29.98 in 4.0 mi Calm Calm - N/A   Drizzle
2:35 AM 50.5 °F - 50.0 °F 98% 29.98 in 7.0 mi Calm Calm - 0.01 in   Drizzle
2:55 AM 50.7 °F - 50.0 °F 97% 29.98 in 5.0 mi Calm Calm - 0.01 in Rain Heavy Rain
3:15 AM 50.5 °F - 50.0 °F 98% 29.97 in 7.0 mi Calm Calm - 0.01 in   Light Drizzle
3:55 AM 50.4 °F - 50.0 °F 99% 29.96 in 10.0 mi NNE 4.6 mph - 0.01 in   Overcast
4:15 AM 50.4 °F - 50.0 °F 99% 29.96 in 7.0 mi Calm Calm - N/A   Drizzle
4:35 AM 50.4 °F - 50.0 °F 99% 29.96 in 5.0 mi NNE 3.5 mph - 0.01 in   Drizzle
4:55 AM 50.4 °F - 50.0 °F 99% 29.96 in 3.0 mi Calm Calm - 0.07 in Rain Heavy Rain
5:15 AM 50.4 °F - 50.0 °F 99% 29.98 in 7.0 mi North 6.9 mph - 0.05 in Rain Rain
5:35 AM 50.4 °F - 50.0 °F 99% 29.97 in 7.0 mi NNE 10.4 mph - 0.09 in Rain Rain
5:55 AM 50.4 °F - 50.0 °F 99% 29.97 in 10.0 mi NNE 8.1 mph - 0.10 in   Drizzle
6:15 AM 50.2 °F - 49.6 °F 98% 29.98 in 7.0 mi NNE 6.9 mph - 0.01 in   Drizzle
6:35 AM 50.2 °F - 49.6 °F 98% 29.99 in 5.0 mi NNE 6.9 mph - 0.02 in   Drizzle
6:55 AM 50.0 °F - 49.3 °F 97% 29.99 in 7.0 mi NNE 6.9 mph - 0.02 in   Light Drizzle
7:15 AM 50.0 °F - 49.3 °F 97% 30.00 in 7.0 mi NNE 5.8 mph - N/A   Light Drizzle
7:35 AM 50.0 °F - 49.3 °F 97% 30.01 in 5.0 mi North 5.8 mph - 0.01 in   Heavy Drizzle
7:55 AM 50.0 °F - 49.3 °F 97% 30.01 in 5.0 mi NNE 4.6 mph - 0.01 in   Heavy Drizzle
8:15 AM 50.0 °F - 49.3 °F 97% 30.01 in 5.0 mi North 3.5 mph - 0.01 in   Drizzle
8:35 AM 50.2 °F - 49.5 °F 97% 30.02 in 5.0 mi North 4.6 mph - 0.01 in Rain Light Rain
8:55 AM 50.2 °F - 49.5 °F 97% 30.03 in 7.0 mi North 8.1 mph - 0.01 in   Drizzle
9:15 AM 50.2 °F - 49.5 °F 97% 30.04 in 4.0 mi North 6.9 mph - 0.02 in Rain Rain
9:35 AM 50.0 °F - 49.3 °F 97% 30.03 in 7.0 mi North 6.9 mph - 0.02 in   Drizzle
10:15 AM 50.4 °F - 49.6 °F 97% 30.03 in 10.0 mi North 8.1 mph - N/A   Light Drizzle
10:55 AM 50.4 °F - 49.6 °F 97% 30.01 in 7.0 mi NNE 6.9 mph - N/A   Drizzle
11:15 AM 50.4 °F - 49.6 °F 97% 30.00 in 10.0 mi NE 4.6 mph - 0.01 in   Drizzle
11:35 AM 50.5 °F - 49.6 °F 97% 29.99 in 5.0 mi NNE 5.8 mph 17.3 mph 0.02 in Rain Light Rain
11:55 AM 50.7 °F - 49.8 °F 97% 29.98 in 10.0 mi Calm Calm - 0.02 in Rain Rain
12:15 PM 50.5 °F - 49.5 °F 96% 29.96 in 10.0 mi NNE 8.1 mph - N/A   Overcast
12:35 PM 50.4 °F - 49.3 °F 96% 29.95 in 7.0 mi Calm Calm - N/A Rain Light Rain
12:55 PM 50.4 °F - 49.3 °F 96% 29.93 in 10.0 mi NE 5.8 mph - N/A   Overcast
1:15 PM 50.5 °F - 49.5 °F 96% 29.93 in 4.0 mi NNE 9.2 mph - N/A   Light Drizzle
1:35 PM 50.4 °F - 49.3 °F 96% 29.93 in 4.0 mi NNE 6.9 mph - 0.01 in   Heavy Drizzle
1:55 PM 50.2 °F - 49.1 °F 96% 29.91 in 3.0 mi NE 8.1 mph 18.4 mph 0.02 in Rain Light Rain
2:15 PM 50.0 °F - 48.9 °F 96% 29.90 in 3.0 mi NE 9.2 mph - N/A Rain Light Rain
2:35 PM 49.5 °F - 48.4 °F 96% 29.89 in 3.0 mi NE 8.1 mph - N/A   Drizzle
2:55 PM 49.3 °F - 48.2 °F 96% 29.88 in 2.5 mi NE 5.8 mph - N/A   Drizzle
3:15 PM 49.1 °F - 48.2 °F 97% 29.87 in 3.0 mi NE 9.2 mph - 0.01 in   Drizzle
3:35 PM 49.1 °F - 48.2 °F 97% 29.88 in 3.0 mi NNE 6.9 mph - 0.01 in   Drizzle
3:55 PM 49.1 °F - 48.2 °F 97% 29.88 in 3.0 mi NNE 10.4 mph - 0.01 in Rain Rain
4:15 PM 49.1 °F - 48.2 °F 97% 29.87 in 2.5 mi NNE 13.8 mph 18.4 mph N/A   Drizzle
4:35 PM 49.1 °F - 48.2 °F 97% 29.86 in 4.0 mi NE 9.2 mph 18.4 mph N/A Rain Light Rain
4:55 PM 48.4 °F - 47.5 °F 97% 29.87 in 3.0 mi NE 18.4 mph 25.3 mph 0.01 in Rain Rain
5:15 PM 47.3 °F - 46.2 °F 96% 29.87 in 4.0 mi NE 13.8 mph 23.0 mph N/A   Drizzle
5:35 PM 46.8 °F - 45.5 °F 95% 29.89 in 10.0 mi NE 12.7 mph 23.0 mph N/A Rain Light Rain
5:55 PM 46.6 °F - 45.0 °F 94% 29.90 in 7.0 mi NNE 13.8 mph 19.6 mph 0.03 in Rain Rain
6:15 PM 45.1 °F 38.1 °F 43.3 °F 93% 29.91 in 10.0 mi NNE 16.1 mph 27.6 mph 0.02 in Rain Light Rain
6:35 PM 44.6 °F 37.8 °F 42.8 °F 93% 29.91 in 10.0 mi NE 15.0 mph 32.2 mph 0.03 in Rain Light Rain
6:55 PM 44.2 °F 38.0 °F 42.3 °F 93% 29.90 in 7.0 mi NE 12.7 mph 20.7 mph 0.04 in Rain Rain
7:15 PM 43.5 °F 35.2 °F 41.4 °F 92% 29.88 in 10.0 mi NNE 19.6 mph 33.4 mph 0.01 in Rain Rain
7:55 PM 41.4 °F 34.3 °F 39.2 °F 92% 29.97 in 2.5 mi NNE 12.7 mph 32.2 mph 0.13 in Rain Heavy Rain
8:15 PM 40.8 °F 34.1 °F 38.7 °F 92% 30.00 in 3.0 mi NNE 11.5 mph 17.3 mph 0.12 in Rain Heavy Rain
8:35 PM 40.1 °F 30.7 °F 38.3 °F 93% 29.97 in 10.0 mi NNE 19.6 mph 28.8 mph 0.16 in Rain Rain
8:55 PM 39.2 °F 28.3 °F 37.0 °F 92% 30.01 in 7.0 mi NNE 25.3 mph 31.1 mph 0.19 in Rain Rain
9:15 PM 38.3 °F 29.7 °F 36.0 °F 91% 30.02 in 4.0 mi NNE 15.0 mph 21.9 mph 0.03 in Rain Rain
9:35 PM 36.0 °F 26.7 °F 34.0 °F 93% 30.02 in 2.5 mi NNE 15.0 mph 20.7 mph 0.06 in Rain Rain
9:55 PM 34.7 °F 25.1 °F 33.1 °F 94% 30.02 in 4.0 mi North 15.0 mph - 0.08 in Rain Light Rain
10:15 PM 34.7 °F 28.8 °F 33.4 °F 95% 30.04 in 7.0 mi North 6.9 mph - 0.01 in Rain Light Rain
10:35 PM 35.6 °F 29.2 °F 34.5 °F 96% 30.07 in 10.0 mi North 8.1 mph - 0.01 in Rain Light Rain
10:55 PM 36.0 °F 30.3 °F 34.7 °F 95% 30.08 in 7.0 mi North 6.9 mph - 0.01 in Rain Rain